sat.trackr.live / text

‹ back to catalog

KINEIS-4A

NORAD 63303 · 2025-056D

PAYLOAD ACTIVE UNKNOWN

§ Identity

Operator
Country
FR
Launch date
2025-03-18
Launch site
RLLB
Launch vehicle
Mass (kg)
RCS (m²)

External: N2YO · Heavens-Above · Gunter

§ Orbital elements

Epoch: 2026-09-22T23:03:33.874272Z

Period
97.81 min
Inclination
97.9217°
Eccentricity
0.0001422
Mean motion
14.72301658 rev/d
Perigee alt
652.7 km
Apogee alt
654.7 km
Semi-major
7,031.9 km
B*
1.5927e-4
RAAN
27.4360°
Arg perigee
24.8490°
Mean anomaly
335.2786°
Rev number
8,151

§ Raw data

KINEIS-4A1 63303U 25056D   26265.96080873  .00000958  00000+0  15927-3 0  99932 63303  97.9217  27.4360 0001422  24.8490 335.2786 14.72301658 81516

JSON: /api/v1/satellites/63303 · /tle

For live sub-satellite position, see the globe view (requires WebGL).

§ Visibility from observer

Set your observer location to see the next 7 days of passes ≥ 10°. The values pass through the URL so the page stays shareable.

No JS? Fill the form by hand. The geolocation button needs JavaScript.

§ Radio — SatNOGS DB

ModeDescriptionDownlinkUplink
BPSK PMT-A3 Mode U 400.651 MHz
FM S-band telemetry 2.261 GHz

2 transmitters · refreshed weekly from db.satnogs.org